Index of /20260408/WXO-DD/model_gdps/15km/00/210
Name Last modified Size Description
Parent Directory -
20260408T00Z_MSC_GDPS_AbsoluteVorticity_IsbL-0200_LatLon0.15_PT210H.grib2 2026-04-08 04:57 1.2M
20260408T00Z_MSC_GDPS_AbsoluteVorticity_IsbL-0250_LatLon0.15_PT210H.grib2 2026-04-08 04:57 1.3M
20260408T00Z_MSC_GDPS_AbsoluteVorticity_IsbL-0500_LatLon0.15_PT210H.grib2 2026-04-08 04:57 1.2M
20260408T00Z_MSC_GDPS_AbsoluteVorticity_IsbL-0700_LatLon0.15_PT210H.grib2 2026-04-08 04:57 1.3M
20260408T00Z_MSC_GDPS_AbsoluteVorticity_IsbL-0850_LatLon0.15_PT210H.grib2 2026-04-08 04:57 1.6M
20260408T00Z_MSC_GDPS_AirTemp-Max_AGL-2m_LatLon0.15_PT210H.grib2 2026-04-08 04:57 747K
20260408T00Z_MSC_GDPS_AirTemp-Min_AGL-2m_LatLon0.15_PT210H.grib2 2026-04-08 04:57 796K
20260408T00Z_MSC_GDPS_AirTemp_AGL-120m_LatLon0.15_PT210H.grib2 2026-04-08 04:57 914K
20260408T00Z_MSC_GDPS_AirTemp_AGL-2m_LatLon0.15_PT210H.grib2 2026-04-08 04:57 1.0M
20260408T00Z_MSC_GDPS_AirTemp_AGL-40m_LatLon0.15_PT210H.grib2 2026-04-08 04:57 937K
20260408T00Z_MSC_GDPS_AirTemp_AGL-80m_LatLon0.15_PT210H.grib2 2026-04-08 04:57 924K
20260408T00Z_MSC_GDPS_AirTemp_IsbL-0001_LatLon0.15_PT210H.grib2 2026-04-08 04:57 639K
20260408T00Z_MSC_GDPS_AirTemp_IsbL-0005_LatLon0.15_PT210H.grib2 2026-04-08 04:57 678K
20260408T00Z_MSC_GDPS_AirTemp_IsbL-0010_LatLon0.15_PT210H.grib2 2026-04-08 04:57 748K
20260408T00Z_MSC_GDPS_AirTemp_IsbL-0020_LatLon0.15_PT210H.grib2 2026-04-08 04:57 780K
20260408T00Z_MSC_GDPS_AirTemp_IsbL-0030_LatLon0.15_PT210H.grib2 2026-04-08 04:57 740K
20260408T00Z_MSC_GDPS_AirTemp_IsbL-0050_LatLon0.15_PT210H.grib2 2026-04-08 04:57 807K
20260408T00Z_MSC_GDPS_AirTemp_IsbL-0100_LatLon0.15_PT210H.grib2 2026-04-08 04:57 953K
20260408T00Z_MSC_GDPS_AirTemp_IsbL-0150_LatLon0.15_PT210H.grib2 2026-04-08 04:57 957K
20260408T00Z_MSC_GDPS_AirTemp_IsbL-0175_LatLon0.15_PT210H.grib2 2026-04-08 04:57 954K
20260408T00Z_MSC_GDPS_AirTemp_IsbL-0200_LatLon0.15_PT210H.grib2 2026-04-08 04:57 971K
20260408T00Z_MSC_GDPS_AirTemp_IsbL-0225_LatLon0.15_PT210H.grib2 2026-04-08 04:57 1.0M
20260408T00Z_MSC_GDPS_AirTemp_IsbL-0250_LatLon0.15_PT210H.grib2 2026-04-08 04:57 1.0M
20260408T00Z_MSC_GDPS_AirTemp_IsbL-0275_LatLon0.15_PT210H.grib2 2026-04-08 04:57 1.0M
20260408T00Z_MSC_GDPS_AirTemp_IsbL-0300_LatLon0.15_PT210H.grib2 2026-04-08 04:57 1.0M
20260408T00Z_MSC_GDPS_AirTemp_IsbL-0350_LatLon0.15_PT210H.grib2 2026-04-08 04:57 929K
20260408T00Z_MSC_GDPS_AirTemp_IsbL-0400_LatLon0.15_PT210H.grib2 2026-04-08 04:57 941K
20260408T00Z_MSC_GDPS_AirTemp_IsbL-0450_LatLon0.15_PT210H.grib2 2026-04-08 04:57 962K
20260408T00Z_MSC_GDPS_AirTemp_IsbL-0500_LatLon0.15_PT210H.grib2 2026-04-08 04:57 1.0M
20260408T00Z_MSC_GDPS_AirTemp_IsbL-0550_LatLon0.15_PT210H.grib2 2026-04-08 04:57 801K
20260408T00Z_MSC_GDPS_AirTemp_IsbL-0600_LatLon0.15_PT210H.grib2 2026-04-08 04:57 895K
20260408T00Z_MSC_GDPS_AirTemp_IsbL-0650_LatLon0.15_PT210H.grib2 2026-04-08 04:57 922K
20260408T00Z_MSC_GDPS_AirTemp_IsbL-0700_LatLon0.15_PT210H.grib2 2026-04-08 04:57 957K
20260408T00Z_MSC_GDPS_AirTemp_IsbL-0750_LatLon0.15_PT210H.grib2 2026-04-08 04:57 1.0M
20260408T00Z_MSC_GDPS_AirTemp_IsbL-0800_LatLon0.15_PT210H.grib2 2026-04-08 04:57 1.1M
20260408T00Z_MSC_GDPS_AirTemp_IsbL-0850_LatLon0.15_PT210H.grib2 2026-04-08 04:57 1.1M
20260408T00Z_MSC_GDPS_AirTemp_IsbL-0875_LatLon0.15_PT210H.grib2 2026-04-08 04:57 1.2M
20260408T00Z_MSC_GDPS_AirTemp_IsbL-0900_LatLon0.15_PT210H.grib2 2026-04-08 04:57 1.2M
20260408T00Z_MSC_GDPS_AirTemp_IsbL-0925_LatLon0.15_PT210H.grib2 2026-04-08 04:57 1.1M
20260408T00Z_MSC_GDPS_AirTemp_IsbL-0950_LatLon0.15_PT210H.grib2 2026-04-08 04:57 1.1M
20260408T00Z_MSC_GDPS_AirTemp_IsbL-0970_LatLon0.15_PT210H.grib2 2026-04-08 04:57 1.1M
20260408T00Z_MSC_GDPS_AirTemp_IsbL-0985_LatLon0.15_PT210H.grib2 2026-04-08 04:57 1.1M
20260408T00Z_MSC_GDPS_AirTemp_IsbL-1000_LatLon0.15_PT210H.grib2 2026-04-08 04:57 1.1M
20260408T00Z_MSC_GDPS_AirTemp_IsbL-1015_LatLon0.15_PT210H.grib2 2026-04-08 04:57 1.1M
20260408T00Z_MSC_GDPS_Albedo_Sfc_LatLon0.15_PT210H.grib2 2026-04-08 04:57 249K
20260408T00Z_MSC_GDPS_CAPE_Sfc_LatLon0.15_PT210H.grib2 2026-04-08 04:57 3.9M
20260408T00Z_MSC_GDPS_CIN_Sfc_LatLon0.15_PT210H.grib2 2026-04-08 04:57 2.8M
20260408T00Z_MSC_GDPS_CloudWater_EAtm_LatLon0.15_PT210H.grib2 2026-04-08 04:57 529K
20260408T00Z_MSC_GDPS_ConvectivePrecip-Accum_Sfc_LatLon0.15_PT210H.grib2 2026-04-08 04:57 3.5M
20260408T00Z_MSC_GDPS_DewPointDepression_AGL-2m_LatLon0.15_PT210H.grib2 2026-04-08 04:57 759K
20260408T00Z_MSC_GDPS_DewPointDepression_IsbL-0010_LatLon0.15_PT210H.grib2 2026-04-08 04:57 17K
20260408T00Z_MSC_GDPS_DewPointDepression_IsbL-0020_LatLon0.15_PT210H.grib2 2026-04-08 04:57 48K
20260408T00Z_MSC_GDPS_DewPointDepression_IsbL-0030_LatLon0.15_PT210H.grib2 2026-04-08 04:57 76K
20260408T00Z_MSC_GDPS_DewPointDepression_IsbL-0050_LatLon0.15_PT210H.grib2 2026-04-08 04:57 349K
20260408T00Z_MSC_GDPS_DewPointDepression_IsbL-0100_LatLon0.15_PT210H.grib2 2026-04-08 04:57 371K
20260408T00Z_MSC_GDPS_DewPointDepression_IsbL-0150_LatLon0.15_PT210H.grib2 2026-04-08 04:57 452K
20260408T00Z_MSC_GDPS_DewPointDepression_IsbL-0175_LatLon0.15_PT210H.grib2 2026-04-08 04:57 523K
20260408T00Z_MSC_GDPS_DewPointDepression_IsbL-0200_LatLon0.15_PT210H.grib2 2026-04-08 04:57 638K
20260408T00Z_MSC_GDPS_DewPointDepression_IsbL-0225_LatLon0.15_PT210H.grib2 2026-04-08 04:57 765K
20260408T00Z_MSC_GDPS_DewPointDepression_IsbL-0250_LatLon0.15_PT210H.grib2 2026-04-08 04:57 858K
20260408T00Z_MSC_GDPS_DewPointDepression_IsbL-0275_LatLon0.15_PT210H.grib2 2026-04-08 04:57 877K
20260408T00Z_MSC_GDPS_DewPointDepression_IsbL-0300_LatLon0.15_PT210H.grib2 2026-04-08 04:57 913K
20260408T00Z_MSC_GDPS_DewPointDepression_IsbL-0350_LatLon0.15_PT210H.grib2 2026-04-08 04:57 946K
20260408T00Z_MSC_GDPS_DewPointDepression_IsbL-0400_LatLon0.15_PT210H.grib2 2026-04-08 04:57 1.0M
20260408T00Z_MSC_GDPS_DewPointDepression_IsbL-0450_LatLon0.15_PT210H.grib2 2026-04-08 04:57 1.0M
20260408T00Z_MSC_GDPS_DewPointDepression_IsbL-0500_LatLon0.15_PT210H.grib2 2026-04-08 04:57 1.0M
20260408T00Z_MSC_GDPS_DewPointDepression_IsbL-0550_LatLon0.15_PT210H.grib2 2026-04-08 04:57 1.0M
20260408T00Z_MSC_GDPS_DewPointDepression_IsbL-0600_LatLon0.15_PT210H.grib2 2026-04-08 04:57 1.1M
20260408T00Z_MSC_GDPS_DewPointDepression_IsbL-0650_LatLon0.15_PT210H.grib2 2026-04-08 04:57 1.1M
20260408T00Z_MSC_GDPS_DewPointDepression_IsbL-0700_LatLon0.15_PT210H.grib2 2026-04-08 04:57 1.1M
20260408T00Z_MSC_GDPS_DewPointDepression_IsbL-0750_LatLon0.15_PT210H.grib2 2026-04-08 04:57 1.1M
20260408T00Z_MSC_GDPS_DewPointDepression_IsbL-0800_LatLon0.15_PT210H.grib2 2026-04-08 04:57 1.2M
20260408T00Z_MSC_GDPS_DewPointDepression_IsbL-0850_LatLon0.15_PT210H.grib2 2026-04-08 04:57 1.2M
20260408T00Z_MSC_GDPS_DewPointDepression_IsbL-0875_LatLon0.15_PT210H.grib2 2026-04-08 04:57 1.1M
20260408T00Z_MSC_GDPS_DewPointDepression_IsbL-0900_LatLon0.15_PT210H.grib2 2026-04-08 04:57 1.1M
20260408T00Z_MSC_GDPS_DewPointDepression_IsbL-0925_LatLon0.15_PT210H.grib2 2026-04-08 04:57 1.0M
20260408T00Z_MSC_GDPS_DewPointDepression_IsbL-0950_LatLon0.15_PT210H.grib2 2026-04-08 04:57 1.0M
20260408T00Z_MSC_GDPS_DewPointDepression_IsbL-0970_LatLon0.15_PT210H.grib2 2026-04-08 04:57 1.0M
20260408T00Z_MSC_GDPS_DewPointDepression_IsbL-0985_LatLon0.15_PT210H.grib2 2026-04-08 04:57 1.0M
20260408T00Z_MSC_GDPS_DewPointDepression_IsbL-1000_LatLon0.15_PT210H.grib2 2026-04-08 04:57 973K
20260408T00Z_MSC_GDPS_DewPointDepression_IsbL-1015_LatLon0.15_PT210H.grib2 2026-04-08 04:57 913K
20260408T00Z_MSC_GDPS_DewPoint_AGL-2m_LatLon0.15_PT210H.grib2 2026-04-08 04:57 617K
20260408T00Z_MSC_GDPS_DownwardLongwaveRadiationFlux-Accum_Sfc_LatLon0.15_PT210H.grib2 2026-04-08 04:57 716K
20260408T00Z_MSC_GDPS_DownwardShortwaveRadiationFlux-Accum_NTAtm_LatLon0.15_PT210H.grib2 2026-04-08 04:57 283K
20260408T00Z_MSC_GDPS_DownwardShortwaveRadiationFlux-Accum_Sfc_LatLon0.15_PT210H.grib2 2026-04-08 04:57 907K
20260408T00Z_MSC_GDPS_FreezingRain-Accum12h_Sfc_LatLon0.15_PT210H.grib2 2026-04-08 04:57 61K
20260408T00Z_MSC_GDPS_FreezingRain-Accum24h_Sfc_LatLon0.15_PT210H.grib2 2026-04-08 04:57 92K
20260408T00Z_MSC_GDPS_FreezingRain-Accum6h_Sfc_LatLon0.15_PT210H.grib2 2026-04-08 04:57 53K
20260408T00Z_MSC_GDPS_FreezingRain-Accum_Sfc_LatLon0.15_PT210H.grib2 2026-04-08 04:57 324K
20260408T00Z_MSC_GDPS_GeopotentialHeight_IsbL-0001_LatLon0.15_PT210H.grib2 2026-04-08 04:57 536K
20260408T00Z_MSC_GDPS_GeopotentialHeight_IsbL-0005_LatLon0.15_PT210H.grib2 2026-04-08 04:57 443K
20260408T00Z_MSC_GDPS_GeopotentialHeight_IsbL-0010_LatLon0.15_PT210H.grib2 2026-04-08 04:57 579K
20260408T00Z_MSC_GDPS_GeopotentialHeight_IsbL-0020_LatLon0.15_PT210H.grib2 2026-04-08 04:57 573K
20260408T00Z_MSC_GDPS_GeopotentialHeight_IsbL-0030_LatLon0.15_PT210H.grib2 2026-04-08 04:57 580K
20260408T00Z_MSC_GDPS_GeopotentialHeight_IsbL-0050_LatLon0.15_PT210H.grib2 2026-04-08 04:57 512K
20260408T00Z_MSC_GDPS_GeopotentialHeight_IsbL-0100_LatLon0.15_PT210H.grib2 2026-04-08 04:57 615K
20260408T00Z_MSC_GDPS_GeopotentialHeight_IsbL-0150_LatLon0.15_PT210H.grib2 2026-04-08 04:57 630K
20260408T00Z_MSC_GDPS_GeopotentialHeight_IsbL-0175_LatLon0.15_PT210H.grib2 2026-04-08 04:57 632K
20260408T00Z_MSC_GDPS_GeopotentialHeight_IsbL-0200_LatLon0.15_PT210H.grib2 2026-04-08 04:57 637K
20260408T00Z_MSC_GDPS_GeopotentialHeight_IsbL-0225_LatLon0.15_PT210H.grib2 2026-04-08 04:57 634K
20260408T00Z_MSC_GDPS_GeopotentialHeight_IsbL-0250_LatLon0.15_PT210H.grib2 2026-04-08 04:57 644K
20260408T00Z_MSC_GDPS_GeopotentialHeight_IsbL-0275_LatLon0.15_PT210H.grib2 2026-04-08 04:57 642K
20260408T00Z_MSC_GDPS_GeopotentialHeight_IsbL-0300_LatLon0.15_PT210H.grib2 2026-04-08 04:57 640K
20260408T00Z_MSC_GDPS_GeopotentialHeight_IsbL-0350_LatLon0.15_PT210H.grib2 2026-04-08 04:57 629K
20260408T00Z_MSC_GDPS_GeopotentialHeight_IsbL-0400_LatLon0.15_PT210H.grib2 2026-04-08 04:57 619K
20260408T00Z_MSC_GDPS_GeopotentialHeight_IsbL-0450_LatLon0.15_PT210H.grib2 2026-04-08 04:57 540K
20260408T00Z_MSC_GDPS_GeopotentialHeight_IsbL-0500_LatLon0.15_PT210H.grib2 2026-04-08 04:57 529K
20260408T00Z_MSC_GDPS_GeopotentialHeight_IsbL-0550_LatLon0.15_PT210H.grib2 2026-04-08 04:57 693K
20260408T00Z_MSC_GDPS_GeopotentialHeight_IsbL-0600_LatLon0.15_PT210H.grib2 2026-04-08 04:57 689K
20260408T00Z_MSC_GDPS_GeopotentialHeight_IsbL-0650_LatLon0.15_PT210H.grib2 2026-04-08 04:57 688K
20260408T00Z_MSC_GDPS_GeopotentialHeight_IsbL-0700_LatLon0.15_PT210H.grib2 2026-04-08 04:57 692K
20260408T00Z_MSC_GDPS_GeopotentialHeight_IsbL-0750_LatLon0.15_PT210H.grib2 2026-04-08 04:57 694K
20260408T00Z_MSC_GDPS_GeopotentialHeight_IsbL-0800_LatLon0.15_PT210H.grib2 2026-04-08 04:57 709K
20260408T00Z_MSC_GDPS_GeopotentialHeight_IsbL-0850_LatLon0.15_PT210H.grib2 2026-04-08 04:57 719K
20260408T00Z_MSC_GDPS_GeopotentialHeight_IsbL-0875_LatLon0.15_PT210H.grib2 2026-04-08 04:57 719K
20260408T00Z_MSC_GDPS_GeopotentialHeight_IsbL-0900_LatLon0.15_PT210H.grib2 2026-04-08 04:57 727K
20260408T00Z_MSC_GDPS_GeopotentialHeight_IsbL-0925_LatLon0.15_PT210H.grib2 2026-04-08 04:57 735K
20260408T00Z_MSC_GDPS_GeopotentialHeight_IsbL-0950_LatLon0.15_PT210H.grib2 2026-04-08 04:57 741K
20260408T00Z_MSC_GDPS_GeopotentialHeight_IsbL-0970_LatLon0.15_PT210H.grib2 2026-04-08 04:57 753K
20260408T00Z_MSC_GDPS_GeopotentialHeight_IsbL-0985_LatLon0.15_PT210H.grib2 2026-04-08 04:57 769K
20260408T00Z_MSC_GDPS_GeopotentialHeight_IsbL-1000_LatLon0.15_PT210H.grib2 2026-04-08 04:57 790K
20260408T00Z_MSC_GDPS_GeopotentialHeight_IsbL-1015_LatLon0.15_PT210H.grib2 2026-04-08 04:57 814K
20260408T00Z_MSC_GDPS_Humidex_Sfc_LatLon0.15_PT210H.grib2 2026-04-08 04:57 5.3M
20260408T00Z_MSC_GDPS_IcePellets-Accum12h_Sfc_LatLon0.15_PT210H.grib2 2026-04-08 04:57 26K
20260408T00Z_MSC_GDPS_IcePellets-Accum24h_Sfc_LatLon0.15_PT210H.grib2 2026-04-08 04:57 36K
20260408T00Z_MSC_GDPS_IcePellets-Accum6h_Sfc_LatLon0.15_PT210H.grib2 2026-04-08 04:57 21K
20260408T00Z_MSC_GDPS_IcePellets-Accum_Sfc_LatLon0.15_PT210H.grib2 2026-04-08 04:57 179K
20260408T00Z_MSC_GDPS_KIndex_Sfc_LatLon0.15_PT210H.grib2 2026-04-08 04:57 6.5M
20260408T00Z_MSC_GDPS_LatentHeatNetFlux_Sfc_LatLon0.15_PT210H.grib2 2026-04-08 04:57 509K
20260408T00Z_MSC_GDPS_LiftedIndex-MU-VT_IsbL-0500_LatLon0.15_PT210H.grib2 2026-04-08 04:57 5.4M
20260408T00Z_MSC_GDPS_NetLongwaveRadiationFlux-Accum_Sfc_LatLon0.15_PT210H.grib2 2026-04-08 04:57 900K
20260408T00Z_MSC_GDPS_NetShortwaveRadiationFlux-Accum_Sfc_LatLon0.15_PT210H.grib2 2026-04-08 04:57 889K
20260408T00Z_MSC_GDPS_O3MixingRatio_LatLon0.15_PT210H.grib2 2026-04-08 05:09 2.3M
20260408T00Z_MSC_GDPS_O3_EAtm_LatLon0.15_PT210H.grib2 2026-04-08 05:09 2.1M
20260408T00Z_MSC_GDPS_PlanetaryBoundaryLayerHeight_Sfc_LatLon0.15_PT210H.grib2 2026-04-08 04:57 2.4M
20260408T00Z_MSC_GDPS_Precip-Accum12h_Sfc_LatLon0.15_PT210H.grib2 2026-04-08 04:57 4.0M
20260408T00Z_MSC_GDPS_Precip-Accum24h_Sfc_LatLon0.15_PT210H.grib2 2026-04-08 04:57 4.5M
20260408T00Z_MSC_GDPS_Precip-Accum6h_Sfc_LatLon0.15_PT210H.grib2 2026-04-08 04:57 3.8M
20260408T00Z_MSC_GDPS_Precip-Accum_Sfc_LatLon0.15_PT210H.grib2 2026-04-08 04:57 5.0M
20260408T00Z_MSC_GDPS_PrecipRate_Sfc_LatLon0.15_PT210H.grib2 2026-04-08 04:57 3.1M
20260408T00Z_MSC_GDPS_PrecipType-Instant_Sfc_LatLon0.15_PT210H.grib2 2026-04-08 04:57 1.6M
20260408T00Z_MSC_GDPS_Pressure_MSL_LatLon0.15_PT210H.grib2 2026-04-08 04:57 828K
20260408T00Z_MSC_GDPS_Pressure_PVU-1.5_LatLon0.15_PT210H.grib2 2026-04-08 04:57 5.8M
20260408T00Z_MSC_GDPS_Pressure_PVU-1_LatLon0.15_PT210H.grib2 2026-04-08 04:57 6.0M
20260408T00Z_MSC_GDPS_Pressure_PVU-2_LatLon0.15_PT210H.grib2 2026-04-08 04:57 6.0M
20260408T00Z_MSC_GDPS_Pressure_Sfc_LatLon0.15_PT210H.grib2 2026-04-08 04:57 1.1M
20260408T00Z_MSC_GDPS_RadiativeTemp_Sfc_LatLon0.15_PT210H.grib2 2026-04-08 04:57 669K
20260408T00Z_MSC_GDPS_Rain-Accum12h_Sfc_LatLon0.15_PT210H.grib2 2026-04-08 04:57 2.6M
20260408T00Z_MSC_GDPS_Rain-Accum24h_Sfc_LatLon0.15_PT210H.grib2 2026-04-08 04:57 3.0M
20260408T00Z_MSC_GDPS_Rain-Accum6h_Sfc_LatLon0.15_PT210H.grib2 2026-04-08 04:57 2.4M
20260408T00Z_MSC_GDPS_Rain-Accum_Sfc_LatLon0.15_PT210H.grib2 2026-04-08 04:57 3.8M
20260408T00Z_MSC_GDPS_RelativeHumidity_AGL-2m_LatLon0.15_PT210H.grib2 2026-04-08 04:57 1.0M
20260408T00Z_MSC_GDPS_RelativeHumidity_IsbL-0010_LatLon0.15_PT210H.grib2 2026-04-08 04:57 236K
20260408T00Z_MSC_GDPS_RelativeHumidity_IsbL-0020_LatLon0.15_PT210H.grib2 2026-04-08 04:57 348K
20260408T00Z_MSC_GDPS_RelativeHumidity_IsbL-0030_LatLon0.15_PT210H.grib2 2026-04-08 04:57 367K
20260408T00Z_MSC_GDPS_RelativeHumidity_IsbL-0050_LatLon0.15_PT210H.grib2 2026-04-08 04:57 402K
20260408T00Z_MSC_GDPS_RelativeHumidity_IsbL-0100_LatLon0.15_PT210H.grib2 2026-04-08 04:57 479K
20260408T00Z_MSC_GDPS_RelativeHumidity_IsbL-0150_LatLon0.15_PT210H.grib2 2026-04-08 04:57 638K
20260408T00Z_MSC_GDPS_RelativeHumidity_IsbL-0175_LatLon0.15_PT210H.grib2 2026-04-08 04:57 763K
20260408T00Z_MSC_GDPS_RelativeHumidity_IsbL-0200_LatLon0.15_PT210H.grib2 2026-04-08 04:57 682K
20260408T00Z_MSC_GDPS_RelativeHumidity_IsbL-0225_LatLon0.15_PT210H.grib2 2026-04-08 04:57 781K
20260408T00Z_MSC_GDPS_RelativeHumidity_IsbL-0250_LatLon0.15_PT210H.grib2 2026-04-08 04:57 859K
20260408T00Z_MSC_GDPS_RelativeHumidity_IsbL-0275_LatLon0.15_PT210H.grib2 2026-04-08 04:57 879K
20260408T00Z_MSC_GDPS_RelativeHumidity_IsbL-0300_LatLon0.15_PT210H.grib2 2026-04-08 04:57 925K
20260408T00Z_MSC_GDPS_RelativeHumidity_IsbL-0350_LatLon0.15_PT210H.grib2 2026-04-08 04:57 953K
20260408T00Z_MSC_GDPS_RelativeHumidity_IsbL-0400_LatLon0.15_PT210H.grib2 2026-04-08 04:57 1.0M
20260408T00Z_MSC_GDPS_RelativeHumidity_IsbL-0450_LatLon0.15_PT210H.grib2 2026-04-08 04:57 1.0M
20260408T00Z_MSC_GDPS_RelativeHumidity_IsbL-0500_LatLon0.15_PT210H.grib2 2026-04-08 04:57 1.0M
20260408T00Z_MSC_GDPS_RelativeHumidity_IsbL-0550_LatLon0.15_PT210H.grib2 2026-04-08 04:57 1.0M
20260408T00Z_MSC_GDPS_RelativeHumidity_IsbL-0600_LatLon0.15_PT210H.grib2 2026-04-08 04:57 1.0M
20260408T00Z_MSC_GDPS_RelativeHumidity_IsbL-0650_LatLon0.15_PT210H.grib2 2026-04-08 04:57 1.1M
20260408T00Z_MSC_GDPS_RelativeHumidity_IsbL-0700_LatLon0.15_PT210H.grib2 2026-04-08 04:57 1.1M
20260408T00Z_MSC_GDPS_RelativeHumidity_IsbL-0750_LatLon0.15_PT210H.grib2 2026-04-08 04:57 1.1M
20260408T00Z_MSC_GDPS_RelativeHumidity_IsbL-0800_LatLon0.15_PT210H.grib2 2026-04-08 04:57 1.2M
20260408T00Z_MSC_GDPS_RelativeHumidity_IsbL-0850_LatLon0.15_PT210H.grib2 2026-04-08 04:57 1.3M
20260408T00Z_MSC_GDPS_RelativeHumidity_IsbL-0875_LatLon0.15_PT210H.grib2 2026-04-08 04:57 1.3M
20260408T00Z_MSC_GDPS_RelativeHumidity_IsbL-0900_LatLon0.15_PT210H.grib2 2026-04-08 04:57 1.2M
20260408T00Z_MSC_GDPS_RelativeHumidity_IsbL-0925_LatLon0.15_PT210H.grib2 2026-04-08 04:57 1.2M
20260408T00Z_MSC_GDPS_RelativeHumidity_IsbL-0950_LatLon0.15_PT210H.grib2 2026-04-08 04:57 1.2M
20260408T00Z_MSC_GDPS_RelativeHumidity_IsbL-0970_LatLon0.15_PT210H.grib2 2026-04-08 04:57 1.2M
20260408T00Z_MSC_GDPS_RelativeHumidity_IsbL-0985_LatLon0.15_PT210H.grib2 2026-04-08 04:57 1.2M
20260408T00Z_MSC_GDPS_RelativeHumidity_IsbL-1000_LatLon0.15_PT210H.grib2 2026-04-08 04:57 1.1M
20260408T00Z_MSC_GDPS_RelativeHumidity_IsbL-1015_LatLon0.15_PT210H.grib2 2026-04-08 04:57 1.1M
20260408T00Z_MSC_GDPS_RelativeVorticity_IsbL-0200_LatLon0.15_PT210H.grib2 2026-04-08 04:57 1.2M
20260408T00Z_MSC_GDPS_RelativeVorticity_IsbL-0250_LatLon0.15_PT210H.grib2 2026-04-08 04:57 1.3M
20260408T00Z_MSC_GDPS_RelativeVorticity_IsbL-0500_LatLon0.15_PT210H.grib2 2026-04-08 04:57 1.5M
20260408T00Z_MSC_GDPS_RelativeVorticity_IsbL-0700_LatLon0.15_PT210H.grib2 2026-04-08 04:57 1.3M
20260408T00Z_MSC_GDPS_RelativeVorticity_IsbL-0850_LatLon0.15_PT210H.grib2 2026-04-08 04:57 1.6M
20260408T00Z_MSC_GDPS_Runoff-Accum_Sfc_LatLon0.15_PT210H.grib2 2026-04-08 04:57 106K
20260408T00Z_MSC_GDPS_SensibleHeatNetFlux_Sfc_LatLon0.15_PT210H.grib2 2026-04-08 04:57 455K
20260408T00Z_MSC_GDPS_ShowalterIndex_IsbL-0500_LatLon0.15_PT210H.grib2 2026-04-08 04:57 6.2M
20260408T00Z_MSC_GDPS_Snow-Accum12h_Sfc_LatLon0.15_PT210H.grib2 2026-04-08 04:57 1.4M
20260408T00Z_MSC_GDPS_Snow-Accum24h_Sfc_LatLon0.15_PT210H.grib2 2026-04-08 04:57 1.4M
20260408T00Z_MSC_GDPS_Snow-Accum6h_Sfc_LatLon0.15_PT210H.grib2 2026-04-08 04:57 1.2M
20260408T00Z_MSC_GDPS_Snow-Accum_Sfc_LatLon0.15_PT210H.grib2 2026-04-08 04:57 2.2M
20260408T00Z_MSC_GDPS_SnowDensity_Sfc_LatLon0.15_PT210H.grib2 2026-04-08 04:57 275K
20260408T00Z_MSC_GDPS_SnowDepth_Sfc_LatLon0.15_PT210H.grib2 2026-04-08 04:57 1.8M
20260408T00Z_MSC_GDPS_SoilTemp_DBS-0to10cm_LatLon0.15_PT210H.grib2 2026-04-08 04:57 510K
20260408T00Z_MSC_GDPS_SoilTemp_Sfc_LatLon0.15_PT210H.grib2 2026-04-08 04:57 584K
20260408T00Z_MSC_GDPS_SoilVolumetricIceContent_Sfc_LatLon0.15_PT210H.grib2 2026-04-08 04:57 226K
20260408T00Z_MSC_GDPS_SoilVolumetricWaterContent_DBS-0to10cm_LatLon0.15_PT210H.grib2 2026-04-08 04:57 549K
20260408T00Z_MSC_GDPS_SoilVolumetricWaterContent_DBS-0to1cm_LatLon0.15_PT210H.grib2 2026-04-08 04:57 649K
20260408T00Z_MSC_GDPS_SpecificHumidity_AGL-120m_LatLon0.15_PT210H.grib2 2026-04-08 04:57 1.1M
20260408T00Z_MSC_GDPS_SpecificHumidity_AGL-2m_LatLon0.15_PT210H.grib2 2026-04-08 04:57 1.2M
20260408T00Z_MSC_GDPS_SpecificHumidity_AGL-40m_LatLon0.15_PT210H.grib2 2026-04-08 04:57 1.1M
20260408T00Z_MSC_GDPS_SpecificHumidity_AGL-80m_LatLon0.15_PT210H.grib2 2026-04-08 04:57 1.1M
20260408T00Z_MSC_GDPS_SpecificHumidity_IsbL-0001_LatLon0.15_PT210H.grib2 2026-04-08 04:57 1.0M
20260408T00Z_MSC_GDPS_SpecificHumidity_IsbL-0005_LatLon0.15_PT210H.grib2 2026-04-08 04:57 1.0M
20260408T00Z_MSC_GDPS_SpecificHumidity_IsbL-0010_LatLon0.15_PT210H.grib2 2026-04-08 04:57 1.1M
20260408T00Z_MSC_GDPS_SpecificHumidity_IsbL-0020_LatLon0.15_PT210H.grib2 2026-04-08 04:57 1.1M
20260408T00Z_MSC_GDPS_SpecificHumidity_IsbL-0030_LatLon0.15_PT210H.grib2 2026-04-08 04:57 1.5M
20260408T00Z_MSC_GDPS_SpecificHumidity_IsbL-0050_LatLon0.15_PT210H.grib2 2026-04-08 04:57 1.2M
20260408T00Z_MSC_GDPS_SpecificHumidity_IsbL-0100_LatLon0.15_PT210H.grib2 2026-04-08 04:57 1.2M
20260408T00Z_MSC_GDPS_SpecificHumidity_IsbL-0150_LatLon0.15_PT210H.grib2 2026-04-08 04:57 1.3M
20260408T00Z_MSC_GDPS_SpecificHumidity_IsbL-0175_LatLon0.15_PT210H.grib2 2026-04-08 04:57 1.0M
20260408T00Z_MSC_GDPS_SpecificHumidity_IsbL-0200_LatLon0.15_PT210H.grib2 2026-04-08 04:57 1.0M
20260408T00Z_MSC_GDPS_SpecificHumidity_IsbL-0225_LatLon0.15_PT210H.grib2 2026-04-08 04:57 1.2M
20260408T00Z_MSC_GDPS_SpecificHumidity_IsbL-0250_LatLon0.15_PT210H.grib2 2026-04-08 04:57 1.2M
20260408T00Z_MSC_GDPS_SpecificHumidity_IsbL-0275_LatLon0.15_PT210H.grib2 2026-04-08 04:57 1.1M
20260408T00Z_MSC_GDPS_SpecificHumidity_IsbL-0300_LatLon0.15_PT210H.grib2 2026-04-08 04:57 1.2M
20260408T00Z_MSC_GDPS_SpecificHumidity_IsbL-0350_LatLon0.15_PT210H.grib2 2026-04-08 04:57 1.2M
20260408T00Z_MSC_GDPS_SpecificHumidity_IsbL-0400_LatLon0.15_PT210H.grib2 2026-04-08 04:57 1.4M
20260408T00Z_MSC_GDPS_SpecificHumidity_IsbL-0450_LatLon0.15_PT210H.grib2 2026-04-08 04:57 1.3M
20260408T00Z_MSC_GDPS_SpecificHumidity_IsbL-0500_LatLon0.15_PT210H.grib2 2026-04-08 04:57 1.5M
20260408T00Z_MSC_GDPS_SpecificHumidity_IsbL-0550_LatLon0.15_PT210H.grib2 2026-04-08 04:57 1.3M
20260408T00Z_MSC_GDPS_SpecificHumidity_IsbL-0600_LatLon0.15_PT210H.grib2 2026-04-08 04:57 1.4M
20260408T00Z_MSC_GDPS_SpecificHumidity_IsbL-0650_LatLon0.15_PT210H.grib2 2026-04-08 04:57 1.5M
20260408T00Z_MSC_GDPS_SpecificHumidity_IsbL-0700_LatLon0.15_PT210H.grib2 2026-04-08 04:57 1.6M
20260408T00Z_MSC_GDPS_SpecificHumidity_IsbL-0750_LatLon0.15_PT210H.grib2 2026-04-08 04:57 1.7M
20260408T00Z_MSC_GDPS_SpecificHumidity_IsbL-0800_LatLon0.15_PT210H.grib2 2026-04-08 04:57 1.8M
20260408T00Z_MSC_GDPS_SpecificHumidity_IsbL-0850_LatLon0.15_PT210H.grib2 2026-04-08 04:57 1.9M
20260408T00Z_MSC_GDPS_SpecificHumidity_IsbL-0875_LatLon0.15_PT210H.grib2 2026-04-08 04:57 1.9M
20260408T00Z_MSC_GDPS_SpecificHumidity_IsbL-0900_LatLon0.15_PT210H.grib2 2026-04-08 04:57 1.6M
20260408T00Z_MSC_GDPS_SpecificHumidity_IsbL-0925_LatLon0.15_PT210H.grib2 2026-04-08 04:57 1.6M
20260408T00Z_MSC_GDPS_SpecificHumidity_IsbL-0950_LatLon0.15_PT210H.grib2 2026-04-08 04:57 1.5M
20260408T00Z_MSC_GDPS_SpecificHumidity_IsbL-0970_LatLon0.15_PT210H.grib2 2026-04-08 04:57 1.5M
20260408T00Z_MSC_GDPS_SpecificHumidity_IsbL-0985_LatLon0.15_PT210H.grib2 2026-04-08 04:57 1.5M
20260408T00Z_MSC_GDPS_SpecificHumidity_IsbL-1000_LatLon0.15_PT210H.grib2 2026-04-08 04:57 1.5M
20260408T00Z_MSC_GDPS_SpecificHumidity_IsbL-1015_LatLon0.15_PT210H.grib2 2026-04-08 04:57 1.4M
20260408T00Z_MSC_GDPS_SpecificHumidity_Sfc_LatLon0.15_PT210H.grib2 2026-04-08 04:57 660K
20260408T00Z_MSC_GDPS_Thickness_IsbL-0850to0700_LatLon0.15_PT210H.grib2 2026-04-08 04:57 469K
20260408T00Z_MSC_GDPS_Thickness_IsbL-1000to0500_LatLon0.15_PT210H.grib2 2026-04-08 04:57 372K
20260408T00Z_MSC_GDPS_Thickness_IsbL-1000to0850_LatLon0.15_PT210H.grib2 2026-04-08 04:57 492K
20260408T00Z_MSC_GDPS_TotalCloudCover_Sfc_LatLon0.15_PT210H.grib2 2026-04-08 04:57 828K
20260408T00Z_MSC_GDPS_TotalTotalsIndex_Sfc_LatLon0.15_PT210H.grib2 2026-04-08 04:57 6.2M
20260408T00Z_MSC_GDPS_UVIndex-ClearSky-Max24h_Sfc_LatLon0.15_PT210H.grib2 2026-04-08 05:09 2.2M
20260408T00Z_MSC_GDPS_UVIndex-ClearSky_Sfc_LatLon0.15_PT210H.grib2 2026-04-08 05:09 1.0M
20260408T00Z_MSC_GDPS_UVIndex-Max24h_Sfc_LatLon0.15_PT210H.grib2 2026-04-08 05:09 3.2M
20260408T00Z_MSC_GDPS_UVIndex_Sfc_LatLon0.15_PT210H.grib2 2026-04-08 05:09 1.5M
20260408T00Z_MSC_GDPS_UpwardLongwaveRadiationFlux_NTAtm_LatLon0.15_PT210H.grib2 2026-04-08 04:57 836K
20260408T00Z_MSC_GDPS_VerticalVelocity_IsbL-0200_LatLon0.15_PT210H.grib2 2026-04-08 04:57 922K
20260408T00Z_MSC_GDPS_VerticalVelocity_IsbL-0250_LatLon0.15_PT210H.grib2 2026-04-08 04:57 1.0M
20260408T00Z_MSC_GDPS_VerticalVelocity_IsbL-0500_LatLon0.15_PT210H.grib2 2026-04-08 04:57 1.0M
20260408T00Z_MSC_GDPS_VerticalVelocity_IsbL-0600_LatLon0.15_PT210H.grib2 2026-04-08 04:57 1.1M
20260408T00Z_MSC_GDPS_VerticalVelocity_IsbL-0700_LatLon0.15_PT210H.grib2 2026-04-08 04:57 1.1M
20260408T00Z_MSC_GDPS_VerticalVelocity_IsbL-0850_LatLon0.15_PT210H.grib2 2026-04-08 04:57 1.3M
20260408T00Z_MSC_GDPS_WindChill_Sfc_LatLon0.15_PT210H.grib2 2026-04-08 04:57 5.3M
20260408T00Z_MSC_GDPS_WindDir_AGL-10m_LatLon0.15_PT210H.grib2 2026-04-08 04:57 1.3M
20260408T00Z_MSC_GDPS_WindDir_AGL-120m_LatLon0.15_PT210H.grib2 2026-04-08 04:57 1.4M
20260408T00Z_MSC_GDPS_WindDir_AGL-40m_LatLon0.15_PT210H.grib2 2026-04-08 04:57 1.4M
20260408T00Z_MSC_GDPS_WindDir_AGL-80m_LatLon0.15_PT210H.grib2 2026-04-08 04:57 1.4M
20260408T00Z_MSC_GDPS_WindDir_IsbL-0001_LatLon0.15_PT210H.grib2 2026-04-08 04:57 645K
20260408T00Z_MSC_GDPS_WindDir_IsbL-0005_LatLon0.15_PT210H.grib2 2026-04-08 04:57 790K
20260408T00Z_MSC_GDPS_WindDir_IsbL-0010_LatLon0.15_PT210H.grib2 2026-04-08 04:57 838K
20260408T00Z_MSC_GDPS_WindDir_IsbL-0020_LatLon0.15_PT210H.grib2 2026-04-08 04:57 905K
20260408T00Z_MSC_GDPS_WindDir_IsbL-0030_LatLon0.15_PT210H.grib2 2026-04-08 04:57 861K
20260408T00Z_MSC_GDPS_WindDir_IsbL-0050_LatLon0.15_PT210H.grib2 2026-04-08 04:57 930K
20260408T00Z_MSC_GDPS_WindDir_IsbL-0100_LatLon0.15_PT210H.grib2 2026-04-08 04:57 1.0M
20260408T00Z_MSC_GDPS_WindDir_IsbL-0150_LatLon0.15_PT210H.grib2 2026-04-08 04:57 1.0M
20260408T00Z_MSC_GDPS_WindDir_IsbL-0175_LatLon0.15_PT210H.grib2 2026-04-08 04:57 1.0M
20260408T00Z_MSC_GDPS_WindDir_IsbL-0200_LatLon0.15_PT210H.grib2 2026-04-08 04:57 1.1M
20260408T00Z_MSC_GDPS_WindDir_IsbL-0225_LatLon0.15_PT210H.grib2 2026-04-08 04:57 1.1M
20260408T00Z_MSC_GDPS_WindDir_IsbL-0250_LatLon0.15_PT210H.grib2 2026-04-08 04:57 1.1M
20260408T00Z_MSC_GDPS_WindDir_IsbL-0275_LatLon0.15_PT210H.grib2 2026-04-08 04:57 1.2M
20260408T00Z_MSC_GDPS_WindDir_IsbL-0300_LatLon0.15_PT210H.grib2 2026-04-08 04:57 1.2M
20260408T00Z_MSC_GDPS_WindDir_IsbL-0350_LatLon0.15_PT210H.grib2 2026-04-08 04:57 1.2M
20260408T00Z_MSC_GDPS_WindDir_IsbL-0400_LatLon0.15_PT210H.grib2 2026-04-08 04:57 1.3M
20260408T00Z_MSC_GDPS_WindDir_IsbL-0450_LatLon0.15_PT210H.grib2 2026-04-08 04:57 1.3M
20260408T00Z_MSC_GDPS_WindDir_IsbL-0500_LatLon0.15_PT210H.grib2 2026-04-08 04:57 1.4M
20260408T00Z_MSC_GDPS_WindDir_IsbL-0550_LatLon0.15_PT210H.grib2 2026-04-08 04:57 1.4M
20260408T00Z_MSC_GDPS_WindDir_IsbL-0600_LatLon0.15_PT210H.grib2 2026-04-08 04:57 1.5M
20260408T00Z_MSC_GDPS_WindDir_IsbL-0650_LatLon0.15_PT210H.grib2 2026-04-08 04:57 1.5M
20260408T00Z_MSC_GDPS_WindDir_IsbL-0700_LatLon0.15_PT210H.grib2 2026-04-08 04:57 1.6M
20260408T00Z_MSC_GDPS_WindDir_IsbL-0750_LatLon0.15_PT210H.grib2 2026-04-08 04:57 1.7M
20260408T00Z_MSC_GDPS_WindDir_IsbL-0800_LatLon0.15_PT210H.grib2 2026-04-08 04:57 1.8M
20260408T00Z_MSC_GDPS_WindDir_IsbL-0850_LatLon0.15_PT210H.grib2 2026-04-08 04:57 2.0M
20260408T00Z_MSC_GDPS_WindDir_IsbL-0875_LatLon0.15_PT210H.grib2 2026-04-08 04:57 2.0M
20260408T00Z_MSC_GDPS_WindDir_IsbL-0900_LatLon0.15_PT210H.grib2 2026-04-08 04:57 2.0M
20260408T00Z_MSC_GDPS_WindDir_IsbL-0925_LatLon0.15_PT210H.grib2 2026-04-08 04:57 2.0M
20260408T00Z_MSC_GDPS_WindDir_IsbL-0950_LatLon0.15_PT210H.grib2 2026-04-08 04:57 2.0M
20260408T00Z_MSC_GDPS_WindDir_IsbL-0970_LatLon0.15_PT210H.grib2 2026-04-08 04:57 2.0M
20260408T00Z_MSC_GDPS_WindDir_IsbL-0985_LatLon0.15_PT210H.grib2 2026-04-08 04:57 2.0M
20260408T00Z_MSC_GDPS_WindDir_IsbL-1000_LatLon0.15_PT210H.grib2 2026-04-08 04:57 2.1M
20260408T00Z_MSC_GDPS_WindDir_IsbL-1015_LatLon0.15_PT210H.grib2 2026-04-08 04:57 2.0M
20260408T00Z_MSC_GDPS_WindGust-Max_AGL-10m_LatLon0.15_PT210H.grib2 2026-04-08 04:57 2.2M
20260408T00Z_MSC_GDPS_WindGust-Min_AGL-10m_LatLon0.15_PT210H.grib2 2026-04-08 04:57 2.1M
20260408T00Z_MSC_GDPS_WindGust_AGL-10m_LatLon0.15_PT210H.grib2 2026-04-08 04:57 2.1M
20260408T00Z_MSC_GDPS_WindSpeed_AGL-10m_LatLon0.15_PT210H.grib2 2026-04-08 04:57 1.1M
20260408T00Z_MSC_GDPS_WindSpeed_AGL-120m_LatLon0.15_PT210H.grib2 2026-04-08 04:57 1.3M
20260408T00Z_MSC_GDPS_WindSpeed_AGL-40m_LatLon0.15_PT210H.grib2 2026-04-08 04:57 1.2M
20260408T00Z_MSC_GDPS_WindSpeed_AGL-80m_LatLon0.15_PT210H.grib2 2026-04-08 04:57 1.3M
20260408T00Z_MSC_GDPS_WindSpeed_IsbL-0001_LatLon0.15_PT210H.grib2 2026-04-08 04:57 626K
20260408T00Z_MSC_GDPS_WindSpeed_IsbL-0005_LatLon0.15_PT210H.grib2 2026-04-08 04:57 675K
20260408T00Z_MSC_GDPS_WindSpeed_IsbL-0010_LatLon0.15_PT210H.grib2 2026-04-08 04:57 690K
20260408T00Z_MSC_GDPS_WindSpeed_IsbL-0020_LatLon0.15_PT210H.grib2 2026-04-08 04:57 655K
20260408T00Z_MSC_GDPS_WindSpeed_IsbL-0030_LatLon0.15_PT210H.grib2 2026-04-08 04:57 652K
20260408T00Z_MSC_GDPS_WindSpeed_IsbL-0050_LatLon0.15_PT210H.grib2 2026-04-08 04:57 901K
20260408T00Z_MSC_GDPS_WindSpeed_IsbL-0100_LatLon0.15_PT210H.grib2 2026-04-08 04:57 1.1M
20260408T00Z_MSC_GDPS_WindSpeed_IsbL-0150_LatLon0.15_PT210H.grib2 2026-04-08 04:57 929K
20260408T00Z_MSC_GDPS_WindSpeed_IsbL-0175_LatLon0.15_PT210H.grib2 2026-04-08 04:57 1.0M
20260408T00Z_MSC_GDPS_WindSpeed_IsbL-0200_LatLon0.15_PT210H.grib2 2026-04-08 04:57 1.0M
20260408T00Z_MSC_GDPS_WindSpeed_IsbL-0225_LatLon0.15_PT210H.grib2 2026-04-08 04:57 1.1M
20260408T00Z_MSC_GDPS_WindSpeed_IsbL-0250_LatLon0.15_PT210H.grib2 2026-04-08 04:57 1.1M
20260408T00Z_MSC_GDPS_WindSpeed_IsbL-0275_LatLon0.15_PT210H.grib2 2026-04-08 04:57 1.1M
20260408T00Z_MSC_GDPS_WindSpeed_IsbL-0300_LatLon0.15_PT210H.grib2 2026-04-08 04:57 1.1M
20260408T00Z_MSC_GDPS_WindSpeed_IsbL-0350_LatLon0.15_PT210H.grib2 2026-04-08 04:57 1.1M
20260408T00Z_MSC_GDPS_WindSpeed_IsbL-0400_LatLon0.15_PT210H.grib2 2026-04-08 04:57 1.1M
20260408T00Z_MSC_GDPS_WindSpeed_IsbL-0450_LatLon0.15_PT210H.grib2 2026-04-08 04:57 1.1M
20260408T00Z_MSC_GDPS_WindSpeed_IsbL-0500_LatLon0.15_PT210H.grib2 2026-04-08 04:57 1.1M
20260408T00Z_MSC_GDPS_WindSpeed_IsbL-0550_LatLon0.15_PT210H.grib2 2026-04-08 04:57 1.1M
20260408T00Z_MSC_GDPS_WindSpeed_IsbL-0600_LatLon0.15_PT210H.grib2 2026-04-08 04:57 1.1M
20260408T00Z_MSC_GDPS_WindSpeed_IsbL-0650_LatLon0.15_PT210H.grib2 2026-04-08 04:57 1.4M
20260408T00Z_MSC_GDPS_WindSpeed_IsbL-0700_LatLon0.15_PT210H.grib2 2026-04-08 04:57 1.5M
20260408T00Z_MSC_GDPS_WindSpeed_IsbL-0750_LatLon0.15_PT210H.grib2 2026-04-08 04:57 1.6M
20260408T00Z_MSC_GDPS_WindSpeed_IsbL-0800_LatLon0.15_PT210H.grib2 2026-04-08 04:57 1.6M
20260408T00Z_MSC_GDPS_WindSpeed_IsbL-0850_LatLon0.15_PT210H.grib2 2026-04-08 04:57 1.8M
20260408T00Z_MSC_GDPS_WindSpeed_IsbL-0875_LatLon0.15_PT210H.grib2 2026-04-08 04:57 1.8M
20260408T00Z_MSC_GDPS_WindSpeed_IsbL-0900_LatLon0.15_PT210H.grib2 2026-04-08 04:57 1.8M
20260408T00Z_MSC_GDPS_WindSpeed_IsbL-0925_LatLon0.15_PT210H.grib2 2026-04-08 04:57 1.8M
20260408T00Z_MSC_GDPS_WindSpeed_IsbL-0950_LatLon0.15_PT210H.grib2 2026-04-08 04:57 1.8M
20260408T00Z_MSC_GDPS_WindSpeed_IsbL-0970_LatLon0.15_PT210H.grib2 2026-04-08 04:57 1.9M
20260408T00Z_MSC_GDPS_WindSpeed_IsbL-0985_LatLon0.15_PT210H.grib2 2026-04-08 04:57 1.9M
20260408T00Z_MSC_GDPS_WindSpeed_IsbL-1000_LatLon0.15_PT210H.grib2 2026-04-08 04:57 1.9M
20260408T00Z_MSC_GDPS_WindSpeed_IsbL-1015_LatLon0.15_PT210H.grib2 2026-04-08 04:57 1.8M
20260408T00Z_MSC_GDPS_WindU_AGL-10m_LatLon0.15_PT210H.grib2 2026-04-08 04:57 1.3M
20260408T00Z_MSC_GDPS_WindU_AGL-120m_LatLon0.15_PT210H.grib2 2026-04-08 04:57 1.0M
20260408T00Z_MSC_GDPS_WindU_AGL-40m_LatLon0.15_PT210H.grib2 2026-04-08 04:57 1.0M
20260408T00Z_MSC_GDPS_WindU_AGL-80m_LatLon0.15_PT210H.grib2 2026-04-08 04:57 1.0M
20260408T00Z_MSC_GDPS_WindU_IsbL-0001_LatLon0.15_PT210H.grib2 2026-04-08 04:57 492K
20260408T00Z_MSC_GDPS_WindU_IsbL-0005_LatLon0.15_PT210H.grib2 2026-04-08 04:57 522K
20260408T00Z_MSC_GDPS_WindU_IsbL-0010_LatLon0.15_PT210H.grib2 2026-04-08 04:57 688K
20260408T00Z_MSC_GDPS_WindU_IsbL-0020_LatLon0.15_PT210H.grib2 2026-04-08 04:57 724K
20260408T00Z_MSC_GDPS_WindU_IsbL-0030_LatLon0.15_PT210H.grib2 2026-04-08 04:57 723K
20260408T00Z_MSC_GDPS_WindU_IsbL-0050_LatLon0.15_PT210H.grib2 2026-04-08 04:57 693K
20260408T00Z_MSC_GDPS_WindU_IsbL-0100_LatLon0.15_PT210H.grib2 2026-04-08 04:57 923K
20260408T00Z_MSC_GDPS_WindU_IsbL-0150_LatLon0.15_PT210H.grib2 2026-04-08 04:57 1.0M
20260408T00Z_MSC_GDPS_WindU_IsbL-0175_LatLon0.15_PT210H.grib2 2026-04-08 04:57 805K
20260408T00Z_MSC_GDPS_WindU_IsbL-0200_LatLon0.15_PT210H.grib2 2026-04-08 04:57 1.0M
20260408T00Z_MSC_GDPS_WindU_IsbL-0225_LatLon0.15_PT210H.grib2 2026-04-08 04:57 849K
20260408T00Z_MSC_GDPS_WindU_IsbL-0250_LatLon0.15_PT210H.grib2 2026-04-08 04:57 852K
20260408T00Z_MSC_GDPS_WindU_IsbL-0275_LatLon0.15_PT210H.grib2 2026-04-08 04:57 879K
20260408T00Z_MSC_GDPS_WindU_IsbL-0300_LatLon0.15_PT210H.grib2 2026-04-08 04:57 872K
20260408T00Z_MSC_GDPS_WindU_IsbL-0350_LatLon0.15_PT210H.grib2 2026-04-08 04:57 888K
20260408T00Z_MSC_GDPS_WindU_IsbL-0400_LatLon0.15_PT210H.grib2 2026-04-08 04:57 891K
20260408T00Z_MSC_GDPS_WindU_IsbL-0450_LatLon0.15_PT210H.grib2 2026-04-08 04:57 890K
20260408T00Z_MSC_GDPS_WindU_IsbL-0500_LatLon0.15_PT210H.grib2 2026-04-08 04:57 894K
20260408T00Z_MSC_GDPS_WindU_IsbL-0550_LatLon0.15_PT210H.grib2 2026-04-08 04:57 1.1M
20260408T00Z_MSC_GDPS_WindU_IsbL-0600_LatLon0.15_PT210H.grib2 2026-04-08 04:57 1.1M
20260408T00Z_MSC_GDPS_WindU_IsbL-0650_LatLon0.15_PT210H.grib2 2026-04-08 04:57 1.2M
20260408T00Z_MSC_GDPS_WindU_IsbL-0700_LatLon0.15_PT210H.grib2 2026-04-08 04:57 1.2M
20260408T00Z_MSC_GDPS_WindU_IsbL-0750_LatLon0.15_PT210H.grib2 2026-04-08 04:57 1.3M
20260408T00Z_MSC_GDPS_WindU_IsbL-0800_LatLon0.15_PT210H.grib2 2026-04-08 04:57 1.4M
20260408T00Z_MSC_GDPS_WindU_IsbL-0850_LatLon0.15_PT210H.grib2 2026-04-08 04:57 1.4M
20260408T00Z_MSC_GDPS_WindU_IsbL-0875_LatLon0.15_PT210H.grib2 2026-04-08 04:57 1.5M
20260408T00Z_MSC_GDPS_WindU_IsbL-0900_LatLon0.15_PT210H.grib2 2026-04-08 04:57 1.5M
20260408T00Z_MSC_GDPS_WindU_IsbL-0925_LatLon0.15_PT210H.grib2 2026-04-08 04:57 1.5M
20260408T00Z_MSC_GDPS_WindU_IsbL-0950_LatLon0.15_PT210H.grib2 2026-04-08 04:57 1.4M
20260408T00Z_MSC_GDPS_WindU_IsbL-0970_LatLon0.15_PT210H.grib2 2026-04-08 04:57 1.4M
20260408T00Z_MSC_GDPS_WindU_IsbL-0985_LatLon0.15_PT210H.grib2 2026-04-08 04:57 1.4M
20260408T00Z_MSC_GDPS_WindU_IsbL-1000_LatLon0.15_PT210H.grib2 2026-04-08 04:57 1.4M
20260408T00Z_MSC_GDPS_WindU_IsbL-1015_LatLon0.15_PT210H.grib2 2026-04-08 04:57 1.4M
20260408T00Z_MSC_GDPS_WindV_AGL-10m_LatLon0.15_PT210H.grib2 2026-04-08 04:57 1.3M
20260408T00Z_MSC_GDPS_WindV_AGL-120m_LatLon0.15_PT210H.grib2 2026-04-08 04:57 1.0M
20260408T00Z_MSC_GDPS_WindV_AGL-40m_LatLon0.15_PT210H.grib2 2026-04-08 04:57 972K
20260408T00Z_MSC_GDPS_WindV_AGL-80m_LatLon0.15_PT210H.grib2 2026-04-08 04:57 1.0M
20260408T00Z_MSC_GDPS_WindV_IsbL-0001_LatLon0.15_PT210H.grib2 2026-04-08 04:57 539K
20260408T00Z_MSC_GDPS_WindV_IsbL-0005_LatLon0.15_PT210H.grib2 2026-04-08 04:57 596K
20260408T00Z_MSC_GDPS_WindV_IsbL-0010_LatLon0.15_PT210H.grib2 2026-04-08 04:57 617K
20260408T00Z_MSC_GDPS_WindV_IsbL-0020_LatLon0.15_PT210H.grib2 2026-04-08 04:57 655K
20260408T00Z_MSC_GDPS_WindV_IsbL-0030_LatLon0.15_PT210H.grib2 2026-04-08 04:57 840K
20260408T00Z_MSC_GDPS_WindV_IsbL-0050_LatLon0.15_PT210H.grib2 2026-04-08 04:57 895K
20260408T00Z_MSC_GDPS_WindV_IsbL-0100_LatLon0.15_PT210H.grib2 2026-04-08 04:57 853K
20260408T00Z_MSC_GDPS_WindV_IsbL-0150_LatLon0.15_PT210H.grib2 2026-04-08 04:57 1.0M
20260408T00Z_MSC_GDPS_WindV_IsbL-0175_LatLon0.15_PT210H.grib2 2026-04-08 04:57 1.0M
20260408T00Z_MSC_GDPS_WindV_IsbL-0200_LatLon0.15_PT210H.grib2 2026-04-08 04:57 1.0M
20260408T00Z_MSC_GDPS_WindV_IsbL-0225_LatLon0.15_PT210H.grib2 2026-04-08 04:57 1.0M
20260408T00Z_MSC_GDPS_WindV_IsbL-0250_LatLon0.15_PT210H.grib2 2026-04-08 04:57 843K
20260408T00Z_MSC_GDPS_WindV_IsbL-0275_LatLon0.15_PT210H.grib2 2026-04-08 04:57 870K
20260408T00Z_MSC_GDPS_WindV_IsbL-0300_LatLon0.15_PT210H.grib2 2026-04-08 04:57 859K
20260408T00Z_MSC_GDPS_WindV_IsbL-0350_LatLon0.15_PT210H.grib2 2026-04-08 04:57 876K
20260408T00Z_MSC_GDPS_WindV_IsbL-0400_LatLon0.15_PT210H.grib2 2026-04-08 04:57 877K
20260408T00Z_MSC_GDPS_WindV_IsbL-0450_LatLon0.15_PT210H.grib2 2026-04-08 04:57 1.1M
20260408T00Z_MSC_GDPS_WindV_IsbL-0500_LatLon0.15_PT210H.grib2 2026-04-08 04:57 1.1M
20260408T00Z_MSC_GDPS_WindV_IsbL-0550_LatLon0.15_PT210H.grib2 2026-04-08 04:57 1.1M
20260408T00Z_MSC_GDPS_WindV_IsbL-0600_LatLon0.15_PT210H.grib2 2026-04-08 04:57 1.1M
20260408T00Z_MSC_GDPS_WindV_IsbL-0650_LatLon0.15_PT210H.grib2 2026-04-08 04:57 1.2M
20260408T00Z_MSC_GDPS_WindV_IsbL-0700_LatLon0.15_PT210H.grib2 2026-04-08 04:57 1.2M
20260408T00Z_MSC_GDPS_WindV_IsbL-0750_LatLon0.15_PT210H.grib2 2026-04-08 04:57 1.3M
20260408T00Z_MSC_GDPS_WindV_IsbL-0800_LatLon0.15_PT210H.grib2 2026-04-08 04:57 1.3M
20260408T00Z_MSC_GDPS_WindV_IsbL-0850_LatLon0.15_PT210H.grib2 2026-04-08 04:57 1.4M
20260408T00Z_MSC_GDPS_WindV_IsbL-0875_LatLon0.15_PT210H.grib2 2026-04-08 04:57 1.5M
20260408T00Z_MSC_GDPS_WindV_IsbL-0900_LatLon0.15_PT210H.grib2 2026-04-08 04:57 1.5M
20260408T00Z_MSC_GDPS_WindV_IsbL-0925_LatLon0.15_PT210H.grib2 2026-04-08 04:57 1.5M
20260408T00Z_MSC_GDPS_WindV_IsbL-0950_LatLon0.15_PT210H.grib2 2026-04-08 04:57 1.4M
20260408T00Z_MSC_GDPS_WindV_IsbL-0970_LatLon0.15_PT210H.grib2 2026-04-08 04:57 1.4M
20260408T00Z_MSC_GDPS_WindV_IsbL-0985_LatLon0.15_PT210H.grib2 2026-04-08 04:57 1.4M
20260408T00Z_MSC_GDPS_WindV_IsbL-1000_LatLon0.15_PT210H.grib2 2026-04-08 04:57 1.4M
20260408T00Z_MSC_GDPS_WindV_IsbL-1015_LatLon0.15_PT210H.grib2 2026-04-08 04:57 1.3M